Location: ????????
(55.0559°N, 39.1270°E)
Time: 08:45:31
(UTC+00:00)

Cosmos 2219 Rocket - Pass Details

Date: 15 November 2025
Orbit: 825 x 846 km, 71.0° (Epoch: 14 December)

Event Time Altitude Azimuth Distance (km) Brightness Sun altitude
Exits shadow 02:44:41 21° 320° (NW) 1,818 3.5 -18.4°
Maximum altitude 02:45:42 22° 335° (NNW) 1,773 3.6 -18.3°
Drops below altitude 10° 02:50:05 10° 26° (NNE) 2,483 4.9 -17.6°
Sets 02:53:08 0° 41° (NE) 3,420 5.8 -17.2°
